Dewpoint
-5 -5 0 7 8 8 8 9 8 8 9 9 6 5 5 6 6 7 9 10 10 9 8 8 10 12 13 13 13 12 11 11
-4 -5 -5 -5 -5 -3 6 3 -2 4 9 10 10 8 8 9 9 10 11 11 12 11 11 10 11 13 12 13 12 12 12 11
-4 -5 -5 -5 -5 -5 -5 -5 -5 -3 1 5 10 10 9 9 10 10 10 12 12 12 12 12 12 13 13 12 12 12 11 11
-5 -5 -5 -5 -5 -5 -5 -5 -5 -4 -1 7 11 12 11 11 11 10 10 11 12 13 12 12 12 12 12 12 12 12 11 11
-6 -5 -5 -5 -4 -4 -4 -3 -1 3 7 12 12 12 11 10 10 9 9 8 11 13 13 13 13 13 12 11 12 11 11 11
-4 -1 2 1 3 3 6 8 10 12 12 14 13 11 10 11 10 7 8 9 10 12 13 13 11 12 12 11 11 12 11 11
4 6 7 7 9 11 11 11 10 11 12 13 11 10 11 11 10 11 12 10 9 10 12 12 10 11 11 11 10 11 12 11
4 4 4 4 4 3 4 5 5 6 7 7 8 9 9 9 9 11 12 12 12 11 11 11 11 10 10 11 10 10 12 12
4 3 2 2 1 1 1 1 1 1 3 3 4 4 5 6 7 8 9 10 11 12 11 11 11 12 12 11 11 10 10 11
3 3 3 2 2 1 0 -1 -1 -3 -4 -4 -4 -4 -4 -4 -3 -1 2 6 9 10 11 11 11 10 9 10 11 11 11 10
1 1 1 1 1 1 0 -0 -1 -2 -3 -3 -2 -2 -2 -2 -3 -3 -2 -1 3 8 9 11 11 9 8 9 10 11 11 11
0 0 1 1 0 0 -1 -1 -2 -4 -4 -3 -2 -2 -1 -1 -2 -3 -3 1 1 4 9 10 11 9 9 9 10 10 11 11
-0 0 0 -0 0 0 -0 -1 -2 -3 -3 -3 -2 -2 -2 -2 -2 0 1 3 4 3 7 11 11 10 8 11 11 10 11 11
-1 -0 -1 -1 -1 -1 -1 -0 -0 -0 -0 -0 -0 -0 -0 -0 -0 1 3 8 9 6 7 10 10 10 8 10 11 10 10 11
-1 -1 -0 -0 -1 -1 -1 -1 -1 -1 -1 -1 -1 -1 -1 -0 0 3 6 9 10 9 9 11 11 9 8 10 11 10 11 10
-1 -1 -1 -1 -0 -1 -1 -1 -1 -1 -1 -1 -1 -0 -0 1 3 5 7 9 9 9 10 10 10 9 9 10 11 10 10 9
-3 -3 -2 -2 -2 -1 -1 -1 -1 -1 -1 -1 -1 -1 0 1 3 5 7 8 9 9 9 9 8 9 10 11 11 10 8 7
-4 -4 -3 -3 -3 -2 -2 -2 -2 -1 -1 -1 -1 -1 0 1 3 5 7 8 9 9 9 9 9 10 9 11 10 8 8 8
-5 -4 -3 -2 -2 -2 -2 -2 -2 -2 -2 -2 -1 -1 -0 1 2 4 7 8 8 9 8 8 9 10 10 10 8 8 8 8
Wind_Speed
41 29 36 44 47 48 44 41 37 35 37 36 35 35 34 31 28 28 26 25 23 22 23 24 24 25 25 26 25 24 23 21
42 36 34 31 32 34 44 39 33 36 42 43 41 39 36 32 29 27 26 25 24 23 23 23 26 27 27 26 25 25 23 22
37 35 36 35 35 36 36 38 35 36 41 42 44 43 38 35 28 23 24 27 25 24 23 23 26 28 28 28 27 28 27 25
40 34 35 34 33 39 41 38 36 35 41 46 47 43 42 32 27 26 26 25 27 26 25 23 24 27 28 31 32 31 30 28
28 19 24 28 34 38 41 32 36 40 42 43 42 42 39 35 30 26 25 26 28 28 28 25 25 26 26 31 33 32 32 32
15 14 17 19 22 25 25 25 27 31 33 30 30 27 28 25 27 27 26 25 29 31 30 27 29 31 30 29 33 37 36 35
28 39 41 40 38 35 33 30 27 23 23 24 26 23 31 33 31 27 27 28 28 30 32 29 27 30 32 31 30 36 39 35
31 42 41 37 36 33 30 25 23 18 16 14 13 15 16 21 23 27 31 31 32 33 34 33 31 32 34 33 33 34 38 37
31 33 35 32 31 27 23 19 16 12 8 5 6 10 14 17 19 22 25 28 30 29 32 35 35 33 33 34 36 37 35 39
29 30 28 28 25 21 16 13 10 6 3 3 7 12 15 18 22 26 31 30 30 31 30 34 35 33 33 33 37 40 35 33
27 27 25 22 20 17 12 9 7 8 9 11 13 13 15 17 21 23 28 31 33 34 34 32 33 35 32 31 34 39 34 34
27 27 22 21 19 16 14 8 6 10 14 16 18 20 21 21 22 26 29 31 33 38 38 35 34 31 32 34 33 40 38 36
25 28 26 22 17 14 12 10 11 14 17 19 22 24 25 26 27 27 28 31 33 37 38 37 34 32 32 33 34 34 37 38
25 28 26 24 24 23 21 20 18 17 18 19 21 22 25 25 27 27 26 24 25 31 37 37 35 35 34 33 34 33 33 39
24 29 28 28 28 27 25 24 22 21 21 22 22 23 26 26 27 25 23 22 19 26 34 35 35 35 35 34 35 33 33 34
32 30 27 25 27 27 26 25 27 26 25 25 26 26 26 25 26 23 22 24 22 26 29 33 34 35 36 37 34 33 33 30
23 21 22 23 27 26 27 29 28 27 28 27 27 28 27 24 23 22 23 27 25 25 29 31 34 36 35 34 35 32 30 31
16 19 21 23 24 25 26 27 27 28 29 29 29 29 29 25 22 21 20 23 25 26 29 31 32 39 34 36 30 28 30 30
16 19 22 24 25 26 26 26 27 28 30 32 33 33 32 28 23 21 20 23 25 26 29 30 37 35 35 30 28 29 29 27
Wind_Direction
228 226 219 226 230 227 229 228 230 234 234 231 229 229 228 229 229 228 226 226 226 232 231 231 230 231 234 235 236 236 240 243
227 230 233 223 226 221 222 225 228 227 231 230 228 226 226 228 229 230 230 233 234 237 236 235 233 233 237 239 238 237 239 238
232 225 232 232 238 239 227 226 231 228 230 232 232 229 227 229 231 236 241 237 239 240 242 242 237 233 235 237 237 236 236 234
234 236 235 235 233 238 238 232 232 233 232 231 230 228 226 222 227 236 241 244 242 243 243 247 246 245 243 243 240 240 239 237
234 231 235 237 235 229 235 227 221 220 224 226 227 230 222 223 232 243 246 248 250 248 246 251 254 250 247 247 246 246 243 240
208 186 162 181 191 192 189 189 196 203 213 217 223 224 230 228 234 240 244 250 252 251 252 248 247 247 249 249 252 244 242 241
127 126 124 119 118 126 132 137 133 149 181 196 213 220 232 224 231 236 240 248 253 252 251 248 248 249 252 252 260 253 244 243
100 116 117 115 112 111 115 121 117 119 134 150 172 195 223 233 240 246 245 241 246 248 247 247 247 253 257 259 263 254 245 244
89 95 99 99 100 102 106 109 113 118 131 166 214 238 244 246 247 250 252 249 240 244 249 250 249 254 259 264 254 249 246 242
92 89 86 87 88 88 85 84 74 66 41 276 250 247 253 259 258 254 256 252 246 242 241 250 250 253 263 262 245 246 239 240
81 81 74 74 74 74 72 62 32 5 334 318 310 303 290 271 264 266 263 259 248 244 239 241 246 256 256 252 244 243 241 242
69 69 67 56 55 48 39 31 347 324 319 316 314 308 301 293 285 274 270 261 251 243 239 236 242 255 246 245 245 243 244 244
62 60 54 50 45 36 21 6 340 322 313 307 305 301 298 292 284 277 271 263 252 246 241 237 239 250 252 248 243 241 241 239
54 57 52 44 36 28 21 14 3 346 329 318 313 308 303 295 286 281 271 259 258 240 237 238 237 248 256 248 236 238 241 232
53 48 44 35 29 24 18 12 2 353 341 331 324 315 310 303 293 281 262 249 248 246 237 238 241 249 247 244 234 235 238 234
40 32 34 24 24 20 17 13 11 2 353 344 336 327 320 308 295 283 256 241 240 240 240 243 242 245 238 238 233 229 229 230
28 21 20 19 21 16 11 14 11 6 358 348 339 336 331 317 303 291 263 239 239 243 241 245 242 240 241 232 225 226 223 225
19 15 15 16 14 9 9 9 5 5 3 357 350 344 339 327 312 291 273 246 241 246 244 247 241 238 245 225 222 225 221 222
15 10 14 13 9 8 6 4 3 3 3 359 355 350 346 338 324 301 276 247 237 255 248 246 242 237 227 218 214 218 217 218
Height
1418 1422 1425 1430 1434 1438 1442 1444 1448 1451 1455 1458 1462 1466 1470 1474 1477 1480 1484 1486 1489 1490 1493 1496 1499 1501 1504 1506 1508 1510 1513 1515
1411 1414 1419 1423 1428 1431 1435 1438 1441 1444 1446 1450 1455 1458 1463 1468 1471 1476 1480 1483 1485 1487 1490 1493 1495 1496 1499 1502 1505 1507 1510 1512
1402 1406 1411 1415 1419 1422 1425 1429 1434 1436 1439 1443 1446 1452 1456 1461 1468 1472 1474 1478 1481 1483 1485 1488 1490 1493 1495 1497 1500 1502 1505 1507
1393 1397 1401 1406 1410 1412 1416 1421 1427 1432 1433 1436 1440 1446 1452 1458 1463 1467 1468 1473 1476 1478 1480 1483 1486 1488 1490 1493 1494 1496 1500 1502
1385 1388 1392 1394 1400 1403 1407 1413 1419 1423 1426 1431 1434 1439 1447 1453 1459 1462 1465 1469 1471 1472 1474 1477 1481 1483 1485 1488 1489 1491 1494 1496
1377 1382 1386 1390 1393 1396 1401 1407 1412 1418 1423 1430 1431 1437 1448 1449 1456 1459 1461 1463 1465 1468 1470 1472 1474 1477 1479 1481 1483 1485 1487 1490
1375 1380 1385 1392 1392 1397 1401 1406 1413 1417 1420 1424 1428 1434 1443 1447 1448 1450 1453 1457 1460 1463 1464 1466 1468 1470 1472 1474 1476 1478 1480 1483
1383 1382 1386 1393 1394 1399 1403 1409 1413 1418 1421 1425 1429 1433 1438 1441 1444 1445 1446 1448 1452 1454 1457 1458 1461 1463 1465 1467 1468 1470 1472 1475
1388 1390 1389 1393 1393 1399 1404 1408 1411 1416 1419 1424 1429 1432 1436 1437 1438 1438 1440 1442 1444 1447 1450 1452 1454 1456 1458 1459 1461 1463 1465 1468
1393 1392 1396 1394 1396 1402 1407 1410 1413 1416 1420 1425 1428 1430 1431 1431 1431 1432 1433 1434 1436 1438 1440 1443 1445 1447 1450 1451 1452 1455 1457 1461
1396 1395 1397 1400 1403 1406 1409 1410 1415 1417 1419 1421 1423 1421 1422 1424 1424 1424 1423 1424 1426 1428 1431 1433 1436 1438 1441 1443 1445 1447 1450 1453
1401 1399 1403 1405 1406 1408 1408 1410 1412 1413 1414 1414 1414 1413 1413 1414 1412 1412 1412 1412 1415 1416 1419 1423 1427 1428 1431 1434 1436 1439 1443 1446
1407 1404 1402 1406 1412 1414 1414 1410 1408 1409 1408 1407 1407 1404 1404 1404 1403 1404 1402 1400 1404 1405 1409 1413 1417 1419 1422 1425 1428 1430 1434 1438
1410 1411 1414 1418 1416 1415 1413 1409 1408 1406 1405 1404 1403 1399 1397 1395 1394 1393 1392 1392 1393 1395 1399 1403 1406 1410 1412 1416 1419 1422 1426 1429
1416 1413 1414 1414 1414 1413 1411 1406 1406 1404 1403 1400 1396 1393 1391 1386 1384 1384 1383 1385 1386 1388 1390 1394 1398 1401 1403 1407 1412 1415 1419 1422
1410 1412 1414 1417 1413 1415 1415 1414 1404 1403 1400 1396 1393 1390 1385 1381 1380 1376 1375 1377 1379 1382 1384 1386 1389 1392 1395 1400 1403 1407 1412 1416
1421 1424 1425 1426 1420 1420 1415 1407 1407 1404 1401 1397 1393 1387 1381 1376 1371 1368 1368 1369 1373 1375 1376 1378 1381 1384 1388 1393 1396 1400 1406 1410
1433 1430 1430 1426 1423 1421 1417 1412 1409 1404 1399 1394 1388 1381 1375 1369 1364 1363 1361 1363 1366 1368 1369 1371 1373 1377 1381 1387 1391 1396 1400 1403
1436 1434 1429 1425 1422 1419 1415 1412 1408 1403 1397 1390 1383 1377 1370 1364 1360 1357 1355 1356 1358 1360 1362 1364 1367 1370 1375 1380 1385 1389 1394 1398